Theta_e
324 326 328 328 328 330 336 341 349 360 358 355 349 345 344 346 341 341 342 340 337 338 339 334 337 338 335 340 341 336 335 331 335 333 333 334 338 341 344 344 345 346 348
323 326 328 330 332 337 343 347 351 356 357 352 354 346 342 339 338 339 340 338 335 336 334 338 337 344 333 342 341 342 331 330 334 329 331 326 330 334 338 342 342 345 348
322 326 329 331 333 336 340 343 347 349 349 348 344 343 342 339 333 334 334 337 333 334 335 335 335 337 338 329 339 336 337 326 332 336 329 323 321 329 335 337 336 339 344
322 325 327 329 330 332 335 338 340 340 339 343 344 346 333 329 331 332 332 332 331 330 331 332 331 335 330 334 331 331 336 333 326 329 331 335 334 324 324 335 337 339 338
320 322 324 327 328 330 331 333 334 334 335 336 336 330 332 329 328 329 330 332 334 329 326 328 329 330 327 331 333 333 334 330 328 326 326 330 329 333 333 324 329 333 336
319 321 324 325 325 327 328 330 331 331 330 330 330 332 329 329 326 328 326 324 324 325 327 326 328 329 330 330 329 333 333 333 333 330 330 325 325 324 325 324 328 326 333
318 318 319 321 322 322 322 326 324 326 326 325 326 326 326 328 328 327 324 325 322 322 330 328 328 325 329 328 330 330 332 330 329 333 329 329 328 328 328 334 330 329 331
317 317 318 319 320 321 320 322 324 326 327 327 326 327 327 324 324 325 323 323 321 322 327 324 324 325 324 325 328 325 324 330 329 333 334 329 329 330 328 331 331 326 327
314 315 316 317 318 319 320 321 322 323 325 326 326 327 326 326 325 326 326 323 325 322 323 323 323 322 322 323 327 322 327 328 330 330 333 330 330 330 332 336 337 329 323
312 314 316 316 317 318 318 321 323 322 323 324 325 324 324 324 324 324 324 323 323 323 322 321 322 321 321 322 327 324 327 330 327 328 330 332 329 329 328 335 335 333 327
311 312 312 314 312 314 316 318 318 319 321 323 323 323 322 322 322 322 322 322 323 322 320 320 320 320 320 323 326 324 324 325 329 330 328 327 329 326 327 326 326 326 322
310 310 310 311 312 312 311 312 314 316 315 318 321 322 321 321 321 321 321 322 321 320 319 319 318 319 319 323 323 320 323 323 325 325 322 319 321 322 322 320 321 319 318
308 309 309 309 310 311 311 313 314 314 315 318 315 316 317 319 319 319 321 320 319 318 318 317 317 318 319 320 320 322 322 323 320 318 317 314 315 315 317 316 314 314 313
307 308 308 309 309 309 311 311 314 315 315 313 313 310 312 314 315 316 318 319 318 316 315 315 314 315 318 318 319 320 320 319 316 313 310 310 310 311 312 312 311 309 307
304 305 305 306 306 308 310 312 310 309 313 309 308 308 311 313 313 315 315 316 316 315 314 312 313 314 315 316 312 316 319 315 310 310 308 307 306 306 307 309 306 305 301
303 303 303 303 304 305 306 308 308 307 308 308 308 310 311 312 312 312 312 312 311 310 311 310 310 312 315 305 307 311 313 310 309 308 309 309 307 304 303 303 303 303 299
300 300 301 301 301 300 302 303 305 307 307 305 306 308 308 308 309 308 308 308 308 309 309 309 309 312 310 303 303 308 310 309 309 310 310 308 307 307 306 303 303 302 302
298 298 299 298 301 302 300 300 303 304 303 303 303 304 304 304 304 304 305 306 306 307 307 308 310 307 305 301 301 305 308 307 308 310 310 309 308 307 307 305 303 302 303
297 298 298 299 299 299 300 299 299 299 298 298 299 300 301 300 301 302 303 306 306 306 306 307 305 304 303 300 300 304 305 305 307 306 308 308 306 297 300 305 303 303 303
297 297 297 296 295 296 298 296 295 296 297 297 298 299 300 300 300 302 302 303 304 305 304 301 301 301 300 297 298 301 301 300 300 303 304 297 301 296 298 306 304 302 302
296 296 294 292 293 295 294 292 293 293 296 297 298 298 299 299 300 301 301 303 302 299 297 297 298 298 298 297 296 297 299 297 296 299 300 301 295 296 296 299 303 300 304
293 293 291 291 292 293 292 291 291 294 295 296 296 297 298 299 301 301 302 300 298 296 296 296 296 297 298 297 295 295 296 298 298 297 299 297 294 294 294 299 295 296 300
292 292 290 289 291 294 295 294 294 296 295 295 296 296 298 299 301 300 298 297 297 296 295 294 294 295 296 296 295 295 295 296 298 299 297 294 294 295 297 296 295 296 304
290 291 290 290 291 295 296 296 296 296 296 295 296 297 298 299 299 299 297 296 296 295 294 294 293 294 295 297 298 298 297 297 299 297 301 301 299 297 300 301 301 302 301
291 291 291 292 293 295 296 298 297 297 296 296 296 295 295 294 294 295 296 295 296 296 295 295 294 293 295 295 295 298 302 303 299 303 303 301 299 299 299 300 301 300 301
291 291 292 293 294 295 295 296 297 297 296 294 294 294 295 295 294 293 291 291 292 292 291 292 295 295 292 292 292 292 292 292 294 299 298 298 298 298 298 299 299 299 299
Wind_Speed
6 1 2 2 2 3 5 7 9 8 6 9 10 8 7 5 6 7 7 6 4 4 2 5 6 6 7 8 8 9 11 11 11 11 11 11 13 14 12 12 13 16 16
4 4 5 4 5 5 5 4 6 7 10 7 4 5 7 7 7 7 5 4 3 3 4 7 7 7 9 9 10 10 10 11 10 12 12 13 11 12 12 12 13 16 13
6 6 7 7 7 8 7 7 6 6 3 6 4 5 6 5 6 7 7 6 3 4 4 6 7 8 8 10 10 11 13 12 11 12 13 13 13 13 14 16 13 13 10
6 7 8 8 9 10 10 9 8 7 7 7 6 6 6 6 6 1 6 2 2 4 5 6 8 8 9 10 11 10 12 12 12 11 11 13 14 13 15 12 13 15 15
4 7 8 8 9 8 9 8 8 7 6 5 4 3 2 3 3 1 2 2 5 4 6 7 8 9 9 10 12 12 12 12 12 13 12 12 13 13 8 13 13 12 11
3 4 7 4 5 6 7 6 5 4 4 4 3 4 3 3 4 1 4 5 4 5 6 8 9 10 10 11 11 12 14 13 13 13 13 13 13 12 11 14 15 15 14
4 4 8 8 4 1 3 1 2 2 2 2 2 2 2 3 4 5 5 6 6 7 7 9 9 10 11 13 13 13 13 13 14 14 13 12 12 11 13 8 12 14 14
6 3 5 4 9 4 3 4 6 6 6 6 5 4 4 6 5 5 5 6 7 8 9 11 12 14 15 14 13 13 13 13 13 15 14 13 12 12 12 7 10 15 14
18 23 21 21 20 17 12 13 10 11 10 9 7 7 7 7 7 8 7 7 8 9 10 13 13 14 16 15 14 13 13 14 13 14 14 13 12 9 10 10 10 12 14
14 12 13 16 16 17 19 13 13 12 14 14 9 9 9 7 8 8 9 10 11 12 12 14 14 14 15 15 13 13 13 13 12 12 12 10 10 11 11 9 9 9 11
10 12 15 14 13 15 17 15 11 12 12 11 12 12 10 9 10 10 9 10 11 12 14 14 14 14 14 14 12 12 14 15 14 14 11 13 13 12 10 8 6 5 4
15 16 17 19 19 17 17 5 5 16 14 15 14 9 9 10 11 12 12 10 12 12 14 14 14 14 14 14 12 12 11 15 15 11 11 11 7 10 6 5 6 4 3
18 18 20 22 22 20 19 19 14 10 12 8 3 6 13 7 10 13 11 12 13 13 13 14 14 14 13 13 11 11 10 13 7 8 7 8 8 6 5 5 6 6 5
20 21 21 22 22 22 20 15 18 15 14 13 12 11 10 9 10 10 13 13 14 12 13 12 15 14 15 11 11 10 7 4 7 6 8 8 8 8 7 5 6 6 6
23 23 23 19 21 24 20 15 13 12 14 7 5 10 15 11 10 12 14 12 12 11 13 14 14 13 10 6 8 9 5 5 7 6 8 10 13 17 18 7 8 8 7
27 22 19 22 26 24 18 19 19 15 15 16 13 12 13 12 13 12 12 10 10 14 12 13 11 15 8 7 9 9 5 7 5 4 6 9 15 19 21 23 22 14 10
21 26 26 24 19 18 18 19 19 16 15 13 14 16 15 14 13 12 11 13 13 13 11 9 10 9 4 4 1 7 4 4 3 3 3 8 8 12 13 17 19 20 20
26 25 24 19 22 20 18 18 18 16 15 16 17 14 11 10 11 12 12 13 9 9 8 7 6 2 2 1 7 8 6 5 4 1 7 9 10 9 11 13 14 16 15
21 20 20 21 22 20 19 18 19 17 13 14 14 12 11 10 11 10 9 6 6 7 5 1 3 4 5 6 7 7 5 4 4 10 10 10 10 12 8 12 13 13 13
19 18 21 21 19 18 18 17 16 15 13 11 10 11 10 8 9 11 6 6 4 1 6 8 7 11 8 12 11 7 5 8 8 9 13 17 11 12 8 10 9 10 9
22 21 17 15 17 16 14 14 13 13 12 10 8 8 7 6 7 1 4 2 5 7 8 9 9 10 11 13 15 16 10 9 10 9 9 8 13 15 16 13 9 6 4
19 17 15 15 15 14 11 12 12 10 8 7 7 7 4 4 3 5 2 6 7 8 8 10 8 8 10 14 17 16 14 8 6 6 7 6 9 10 10 6 8 10 4
16 15 13 15 14 12 8 8 9 4 6 5 5 4 2 2 2 6 7 7 7 6 7 7 8 8 7 8 17 12 10 5 7 8 8 6 6 8 5 6 12 8 5
15 14 14 13 12 10 8 8 7 7 7 7 6 5 3 5 7 6 6 6 6 7 7 8 8 8 8 6 5 7 7 6 7 8 7 6 6 4 1 3 5 8 8
13 12 12 11 12 11 11 7 5 6 6 6 8 9 9 10 9 9 7 8 8 8 8 8 8 8 8 4 5 4 6 7 4 6 6 6 6 6 6 7 8 8 8
11 11 11 11 11 10 11 12 10 9 10 9 8 7 7 8 9 10 12 21 19 18 15 13 8 9 8 6 10 13 11 9 7 8 7 6 6 8 8 8 9 9 9
Wind_Direction
42 321 316 248 203 172 182 192 205 148 181 181 195 181 168 127 147 93 124 132 105 80 16 332 350 323 314 339 303 297 303 297 302 295 284 286 291 289 268 257 270 258 252
107 75 88 101 97 98 103 143 172 154 212 193 228 172 149 176 140 128 127 113 87 31 332 353 332 332 319 312 305 290 297 295 300 298 296 297 298 287 270 257 256 259 252
110 101 91 98 106 103 109 112 122 140 151 102 107 87 89 102 163 158 171 101 18 0 341 326 316 312 298 293 312 310 301 288 286 299 290 291 293 309 311 307 303 297 287
119 116 116 105 103 104 102 102 104 117 137 188 147 162 185 195 79 105 71 351 269 327 313 308 315 314 308 300 290 296 316 305 291 285 287 285 288 283 292 289 302 306 298
150 139 117 103 99 108 98 96 88 76 65 52 91 213 306 124 160 219 100 293 245 268 306 309 316 313 303 311 303 290 285 286 284 284 291 295 302 290 264 284 277 283 281
116 96 93 111 101 131 120 108 103 92 87 77 60 29 62 346 314 342 311 279 303 312 303 318 315 309 296 295 304 297 289 284 286 287 287 283 283 295 290 293 297 297 303
230 199 194 187 140 148 59 49 181 280 310 306 325 319 328 320 288 269 294 331 300 310 326 330 310 306 305 300 297 295 294 285 279 280 282 283 276 285 298 281 285 283 284
254 238 356 332 309 328 198 302 299 265 245 259 265 268 272 271 285 268 313 300 312 304 321 301 302 304 302 300 297 293 293 294 286 285 286 288 285 278 283 285 291 289 285
19 11 10 5 353 339 314 300 284 280 268 259 256 259 264 273 295 302 291 284 292 293 303 303 297 297 296 295 294 287 290 287 283 279 275 266 268 289 327 310 283 275 286
339 338 328 335 327 322 316 314 283 274 290 295 270 265 254 256 268 270 273 282 284 285 294 294 293 294 293 291 288 287 289 288 287 281 283 303 313 312 304 295 295 290 289
297 313 319 309 307 301 302 305 305 322 287 258 264 268 267 278 281 273 271 284 291 293 292 294 297 293 290 289 287 288 284 278 289 291 303 317 309 302 306 297 299 321 0
334 330 314 307 302 300 299 277 17 329 283 293 286 261 262 276 282 282 279 284 287 290 292 292 293 289 293 289 297 293 293 299 299 340 327 313 317 304 326 340 338 333 357
326 328 321 313 310 308 313 317 293 290 325 329 354 283 284 301 292 290 290 289 278 283 290 297 294 295 296 290 297 296 316 316 349 337 351 353 344 331 329 333 337 333 341
331 322 313 311 317 317 317 318 310 294 297 302 316 305 310 281 279 291 288 279 272 280 299 299 312 299 294 322 310 310 303 317 48 49 42 19 7 354 344 25 12 13 35
322 312 306 311 321 318 310 301 314 330 304 265 269 286 288 277 284 282 289 302 309 298 300 299 288 298 305 317 318 303 278 96 94 83 74 57 53 56 46 44 44 48 60
313 315 315 313 314 307 303 305 299 287 291 290 301 276 277 292 290 287 280 292 295 293 295 289 293 290 296 348 312 277 122 122 121 120 123 104 81 68 68 68 63 64 72
322 314 309 307 313 307 298 300 293 290 279 279 276 286 292 288 283 288 291 287 282 286 277 277 281 304 346 327 121 96 125 113 117 177 175 113 115 101 97 97 88 80 74
310 311 311 297 301 301 284 276 276 290 284 279 282 282 285 289 288 280 275 270 274 274 265 276 297 52 38 89 88 85 86 82 78 82 76 91 83 64 88 81 76 68 65
301 302 305 306 306 303 301 294 288 283 285 286 283 285 284 278 274 270 294 292 298 279 300 105 89 106 85 74 70 89 81 60 62 56 57 93 83 10 51 90 89 87 87
313 313 316 307 297 295 297 292 287 290 283 264 265 272 270 263 259 271 292 309 301 13 96 73 69 81 81 63 58 77 80 83 76 71 68 45 40 27 21 82 85 84 85
322 316 309 303 298 297 294 286 280 270 269 275 280 271 267 266 262 261 253 340 85 88 89 88 78 80 80 67 64 60 64 62 50 49 66 59 33 43 49 51 56 42 82
318 317 312 308 306 302 294 285 272 262 252 249 242 247 244 256 313 149 86 105 104 101 96 94 90 83 83 79 64 66 70 70 89 75 81 69 49 40 14 57 347 315 309
323 319 319 314 315 316 313 327 334 255 189 188 186 184 201 108 53 98 102 98 95 96 91 92 93 88 76 73 79 72 72 78 98 101 121 169 149 144 98 275 272 248 37
323 325 325 334 338 339 354 17 39 82 116 120 115 128 170 116 88 82 84 88 89 93 95 96 90 88 88 86 102 122 117 128 120 147 174 151 91 37 328 81 46 54 38
329 335 341 350 359 1 19 34 68 90 101 101 86 80 79 80 72 61 70 73 61 76 90 92 98 108 101 77 68 83 133 101 74 138 118 76 68 74 63 55 53 34 36
340 345 351 1 11 20 31 34 41 66 79 82 80 85 90 87 86 86 82 62 69 69 67 69 86 82 87 80 57 56 53 40 46 80 82 89 75 55 54 49 55 42 28